Location: Haliburton Scout Reserve
(45.0900°N, 78.3200°W)
Time: 17:10:19
(UTC-04:00)

Courier 1B - Pass Details

Date: 07 December 2023
Orbit: 962 x 1208 km, 28.3° (Epoch: 10 October)

Event Time Altitude Azimuth Distance (km) Brightness Sun altitude
Rises 11:22:06 0° 245° (WSW) 3,733 10.7 21.6°
Reaches altitude 10° 11:25:53 10° 225° (SW) 2,742 10.5 21.7°
Maximum altitude 11:29:45 16° 189° (S) 2,281 11.3 21.8°
Drops below altitude 10° 11:33:35 10° 152° (SSE) 2,691 11.3 21.9°
Sets 11:37:15 0° 132° (SE) 3,628 11.2 22.0°
